Regional Weather Roundup
Issued by NWS

Home | Current Version | Previous Version | Text Only | Print | Product List | Glossary Off
Versions: 1 2 3 4 5 6 7 8 9 10 11 12 13 14 15 16 17 18 19 20 21 22 23 24 25 26 27 28 29 30 31 32 33 34 35 36 37 38 39 40 41 42 43 44 45 46 47 48 49 50

000
ASUS43 KLSX 291657
RWRMO

WEATHER SUMMARY FOR MISSOURI
NATIONAL WEATHER SERVICE SPRINGFIELD MO
1200 PM CDT MON MAY 29 2017

NOTE: "FAIR" INDICATES FEW OR NO CLOUDS BELOW 12,000 FEET WITH NO
       SIGNIFICANT WEATHER AND/OR OBSTRUCTIONS TO VISIBILITY.
       CURRENT SKY AND/OR WEATHER CONDITIONS ARE NOT AVAILABLE FOR
       CHILLICOTHE AND FARMINGTON.

MOZ001>031-035>038-043-044-053-054-291800-
...NORTHERN AND WESTERN MISSOURI...

CITY           SKY/WX    TMP DP  RH WIND       PRES   REMARKS
KANSAS CTY INT SUNNY     76  54  46 NW12      30.02R
LEE`S SUMMIT   SUNNY     76  51  41 NW13      30.01R
ST JOSEPH      SUNNY     77  49  37 VRB6      30.01R
CHILLICOTHE      N/A     74  52  46 VRB5      29.99R

$$
MOZ066>068-077>081-088>096-101>105-291800-
...SOUTHWEST MISSOURI...

CITY           SKY/WX    TMP DP  RH WIND       PRES   REMARKS
SPRINGFIELD    SUNNY     80  55  42 W9        30.04R
JOPLIN         SUNNY     80  57  45 W8        30.05S
BRANSON        PTSUNNY   77  59  53 SW9       30.07S

$$
MOZ032>034-039>042-045>050-055>058-069>072-291800-
...CENTRAL MISSOURI...

CITY           SKY/WX    TMP DP  RH WIND       PRES   REMARKS
COLUMBIA       NOT AVBL
JEFFERSON CITY MOSUNNY   81  56  42 S12       29.95S
ROLLA          SUNNY     77  59  53 SW12      29.99S
SEDALIA        MOSUNNY   80  59  48 W15G21    29.98R
WARRENSBURG    SUNNY     77  52  41 W13       29.99R

$$
MOZ051-052-059>065-291800-
...EAST CENTRAL MISSOURI...

CITY           SKY/WX    TMP DP  RH WIND       PRES   REMARKS
ST LOUIS INTL  MOSUNNY   83  48  29 SW12      29.96S

$$
MOZ072>076-082>087-097>100-106>115-291800-
...SOUTH CENTRAL AND SOUTHEAST MISSOURI...

CITY           SKY/WX    TMP DP  RH WIND       PRES   REMARKS
CAPE GIRARDEAU SUNNY     81  60  48 SW8       29.99S
POPLAR BLUFF   SUNNY     80  64  58 SW5       30.00F
WEST PLAINS    SUNNY     79  59  50 W7        30.05S

$$


USA.gov is the U.S. government's official web portal to all federal, state and local government web resources and services.